SCP
0 1 1 0 0 0 0 0 0 0 0 0 0 0 0 0 0 0 0 0 0 0 0 0 0 0 0 0 0 0 0 0 -0 -0 -0 -0 -0 -0 -0 -0 -0 -0 -0
0 0 0 0 0 0 0 0 0 0 0 0 0 0 0 0 0 0 0 0 0 0 0 0 0 0 0 0 0 0 0 0 0 -0 0 0 0 -0 -0 -0 -0 -0 -0
0 0 0 0 0 0 0 0 0 0 0 0 0 0 0 0 0 0 0 0 0 0 0 0 0 0 0 0 0 0 0 0 0 0 0 0 0 0 0 0 0 -0 -0
0 0 0 0 0 0 0 0 0 0 0 0 0 0 0 0 0 0 0 0 0 0 0 0 0 0 0 0 0 0 0 0 0 0 0 0 0 0 0 0 0 0 0
0 0 0 0 0 0 0 0 0 0 0 0 0 0 0 0 0 0 0 0 0 0 0 0 0 0 0 0 0 0 0 0 0 0 0 0 0 0 0 0 0 0 0
0 0 0 0 0 0 0 0 0 0 0 0 0 0 0 0 0 0 0 0 0 0 0 0 0 0 0 0 0 0 0 0 0 0 0 0 0 0 0 0 0 0 0
0 0 0 0 0 0 0 0 0 0 0 0 0 0 0 0 0 0 0 0 0 0 0 0 0 0 0 0 0 0 0 0 0 0 0 0 0 0 0 0 0 0 0
0 0 0 0 0 0 0 0 0 0 0 0 0 0 0 0 0 0 0 0 0 0 0 0 0 0 0 0 0 0 0 0 0 0 0 0 0 0 0 0 0 0 0
0 0 0 0 0 0 0 0 0 0 0 0 0 0 0 0 0 0 0 0 0 0 0 0 0 0 0 0 0 0 0 0 0 0 0 0 0 0 0 0 0 0 0
0 0 0 0 0 0 0 0 0 0 0 0 0 0 0 0 0 0 0 0 0 0 0 0 0 0 0 0 0 0 0 0 0 0 0 0 0 0 0 0 0 0 0
0 0 0 0 0 0 0 0 0 0 0 0 0 0 0 0 0 0 0 0 0 0 0 0 0 0 0 0 0 0 0 0 0 0 0 0 0 0 0 0 0 0 0
0 0 0 0 0 0 0 0 0 0 0 0 0 0 0 0 0 0 0 0 0 0 0 0 0 0 0 0 0 0 0 0 0 0 0 0 0 0 0 0 0 0 0
0 0 0 0 0 0 0 0 0 0 0 0 0 0 0 0 0 0 0 0 0 0 0 0 0 0 0 0 0 0 0 0 0 0 0 0 0 0 0 0 0 0 0
0 0 0 0 0 0 0 0 0 0 0 0 0 0 0 0 0 0 0 0 0 0 0 0 0 0 0 0 0 0 0 0 0 0 0 0 0 0 0 0 0 0 0
0 0 0 0 0 0 0 0 0 0 0 0 0 -0 0 -0 0 0 0 0 0 0 0 0 0 0 0 0 0 0 0 0 0 0 0 0 0 0 0 0 0 0 0
0 0 0 0 0 0 0 0 0 0 0 0 0 0 0 0 0 0 0 0 0 0 0 0 0 0 0 0 0 0 0 0 0 0 0 0 0 0 0 0 0 0 0
0 0 0 0 0 0 0 0 0 0 0 0 0 0 0 0 0 0 0 0 0 0 0 0 0 0 0 0 0 0 0 0 0 0 0 0 0 0 0 0 0 0 0
0 0 0 0 0 0 0 0 0 0 0 0 0 0 0 0 0 0 0 0 0 0 0 0 0 0 0 0 0 0 0 0 0 0 0 0 0 0 0 0 0 0 0
0 0 0 0 0 0 0 0 0 0 0 0 0 0 0 0 0 0 0 0 0 0 0 0 0 0 0 0 0 0 0 0 0 0 0 0 0 0 0 0 0 0 0
0 0 0 0 0 0 0 0 0 0 0 -0 0 0 0 0 0 0 0 0 0 0 0 0 0 0 0 0 0 0 0 0 0 0 0 0 0 0 0 0 0 0 0
0 0 0 0 0 0 0 -0 -0 -0 -0 -0 -0 -0 -0 -0 0 0 0 0 0 0 0 0 0 0 0 0 0 0 0 0 0 0 0 0 0 0 0 0 0 0 0
0 0 0 0 0 0 -0 -0 -0 -0 -0 -0 -0 -0 -0 -0 -0 -0 -0 -0 -0 0 0 0 0 0 0 0 0 0 0 0 0 0 0 0 0 0 0 0 0 0 0
0 0 0 0 0 0 -0 -0 -0 -0 -0 -0 -0 -0 -0 -0 -0 -0 -0 -0 -0 -0 -0 0 0 0 0 0 0 0 0 0 0 0 0 0 0 0 0 0 0 0 0
0 0 0 0 0 -0 -0 -0 -0 -0 -0 -0 -0 -0 -0 -0 -0 -0 -0 -0 -0 -0 -0 0 0 0 0 0 0 0 0 0 0 0 0 0 0 0 0 0 0 0 0
0 0 0 0 -0 0 -0 -0 -0 -0 -0 -0 -0 -0 -0 -0 -0 -0 -0 -0 -0 -0 0 -0 0 0 0 0 0 0 0 0 0 0 0 0 0 0 0 0 0 0 0
0 0 0 0 -0 -0 -0 -0 -0 -0 -0 -0 -0 -0 -0 -0 -0 -0 -0 -0 0 0 0 0 0 0 0 0 0 0 0 0 0 0 0 0 0 0 0 0 0 0 0
Wind_Speed_500mb
29 27 23 20 18 17 18 16 15 15 13 15 11 8 4 5 4 8 8 9 12 16 16 21 20 22 27 29 31 32 40 46 45 50 51 52 52 55 51 43 50 52 52
30 27 26 21 24 19 16 13 14 15 16 19 17 13 10 11 8 5 4 2 6 10 14 15 16 15 23 22 26 34 34 39 43 46 49 49 51 54 54 54 53 45 47
31 28 25 18 20 21 17 15 17 19 20 21 22 22 18 13 14 9 9 6 3 2 8 8 15 14 18 23 24 29 35 36 38 43 46 50 51 49 50 56 55 53 43
27 23 25 23 20 19 20 19 18 17 17 17 18 19 17 14 18 14 14 13 9 3 2 5 6 11 15 21 22 26 32 35 37 40 42 44 48 48 49 48 49 53 55
22 20 20 20 20 18 18 14 12 13 13 12 10 10 11 16 20 17 15 17 16 11 5 5 5 9 14 18 23 26 28 31 34 36 38 40 41 44 45 45 46 48 49
25 19 19 18 17 16 16 13 12 12 13 14 14 14 12 18 21 18 18 19 22 18 10 8 9 9 11 15 22 22 24 26 28 30 33 34 37 37 38 40 40 40 42
28 24 24 22 19 18 18 17 15 14 15 13 12 15 18 22 24 24 21 21 26 24 18 15 12 11 11 12 16 18 21 21 24 26 28 30 30 30 32 33 36 37 37
30 28 28 25 23 21 22 23 21 19 19 18 14 15 13 22 26 27 26 21 22 30 29 27 21 19 13 14 15 9 12 14 16 18 20 23 24 25 26 29 28 30 31
34 30 30 28 26 24 23 22 21 20 17 18 17 13 9 9 14 21 23 21 23 25 39 30 27 26 22 22 17 14 5 8 12 16 17 19 20 21 22 24 24 22 22
36 34 32 29 26 23 21 20 20 17 17 16 23 22 22 13 7 4 9 14 19 7 23 11 19 34 28 28 25 19 9 5 6 8 10 13 16 17 16 17 17 18 19
38 35 30 28 26 21 20 19 16 16 14 15 20 22 23 24 16 11 4 9 8 15 19 25 22 34 37 36 32 26 19 9 6 3 4 6 10 12 15 17 14 12 15
38 35 30 26 28 20 17 16 18 15 14 14 17 20 21 13 10 13 10 10 11 10 13 22 23 40 38 39 38 35 28 22 14 7 2 4 7 11 13 15 16 18 17
41 35 27 24 25 20 19 15 16 14 15 16 13 16 16 13 15 14 14 19 13 9 11 12 17 28 33 37 46 43 36 29 22 15 8 7 12 13 16 18 19 17 15
31 28 25 27 25 21 22 16 16 17 17 17 14 13 17 15 12 10 8 7 7 10 10 12 17 19 23 25 25 41 41 37 29 17 15 26 18 20 22 24 23 21 20
31 27 27 32 28 30 16 18 18 20 21 17 13 16 16 13 12 8 6 7 6 8 8 9 13 11 11 12 20 28 47 19 20 23 16 20 25 29 28 28 28 22 23
30 29 28 29 28 22 20 20 18 19 20 22 17 13 9 9 9 8 4 3 6 16 16 12 10 12 14 14 18 13 13 14 23 31 29 30 31 37 34 23 27 28 25
30 27 27 28 22 25 21 18 10 17 23 23 15 11 10 8 5 11 4 2 3 4 11 12 12 13 13 10 10 12 19 20 21 25 25 29 24 25 31 26 28 26 26
30 30 28 25 31 26 23 19 13 12 19 20 13 11 8 4 6 6 10 6 8 6 10 18 15 12 13 10 11 11 9 15 18 17 13 17 21 24 25 23 27 26 21
33 28 30 31 34 29 27 23 20 14 10 9 14 12 9 8 6 7 8 10 9 11 17 10 14 10 7 5 7 9 11 12 14 17 20 22 20 20 20 21 16 15 14
30 30 30 31 31 29 27 25 23 18 14 9 14 13 11 8 5 6 9 3 11 11 17 16 12 10 4 1 3 2 3 7 13 15 15 18 18 19 18 15 16 15 16
29 34 35 32 31 31 30 27 22 19 15 18 18 13 7 4 3 4 16 21 20 18 17 12 11 9 3 1 5 5 5 6 8 9 11 14 15 16 16 16 18 21 19
23 20 21 23 31 35 29 29 27 23 19 16 13 10 14 19 25 31 28 25 18 10 13 12 12 8 5 3 6 7 8 8 7 15 12 16 17 18 18 17 17 18 19
27 28 28 25 28 35 34 36 31 26 23 29 31 35 36 32 25 22 20 17 16 15 12 12 11 12 10 8 8 8 7 7 6 11 14 15 19 19 19 14 15 15 22
33 35 31 29 26 35 32 34 39 39 44 46 40 32 32 34 28 19 17 19 22 23 22 18 16 17 17 16 14 14 14 14 15 17 19 11 21 17 17 13 11 18 25
39 40 32 33 38 38 40 42 50 52 49 47 40 32 29 31 30 23 18 21 25 27 24 24 26 27 26 25 26 22 21 18 15 17 20 20 20 21 13 9 15 20 24
43 44 45 48 53 55 48 48 46 45 46 43 40 37 28 28 31 23 18 21 24 31 28 27 27 28 28 27 24 25 25 23 19 9 24 23 19 24 13 16 12 27 26
Wind_Direction_500mb
235 227 225 217 210 209 216 218 210 212 221 220 225 241 263 284 331 353 27 38 35 48 56 46 56 68 70 71 75 71 66 65 67 68 66 63 61 61 66 75 82 80 74
234 229 223 224 238 230 226 228 207 212 222 231 243 252 262 257 250 295 309 24 36 46 57 49 48 64 84 77 74 81 75 70 68 68 68 69 67 63 61 61 68 81 84
230 224 226 222 214 207 209 206 203 216 222 234 247 253 261 268 243 234 283 265 208 59 45 64 66 59 84 85 78 78 79 76 72 70 70 72 74 69 69 67 63 62 69
231 229 221 220 207 205 204 207 211 214 219 230 241 254 258 248 232 227 244 254 229 226 59 116 84 55 87 90 89 87 86 83 73 72 70 68 73 69 68 68 70 66 66
221 213 208 210 206 206 206 207 202 207 214 221 239 253 263 247 224 231 238 241 240 255 225 168 134 107 87 98 97 91 82 80 76 73 70 73 71 70 69 67 69 67 65
212 206 197 201 209 211 218 224 224 220 217 218 210 227 239 262 234 230 238 246 247 248 228 190 186 147 123 112 106 95 89 81 70 69 67 68 74 72 73 71 66 65 64
214 215 213 214 219 225 235 242 246 245 243 221 221 229 231 240 236 232 235 257 238 234 233 219 205 183 158 129 113 108 102 90 80 75 69 66 63 67 69 69 68 66 64
215 221 226 228 234 241 248 249 244 247 241 217 217 234 244 245 247 246 248 249 245 232 235 231 207 200 195 159 138 93 64 58 60 69 68 70 61 60 58 60 61 65 67
220 223 227 234 242 246 248 249 247 247 236 212 208 212 222 223 229 248 257 255 254 248 242 245 229 217 207 196 175 153 112 79 79 66 57 52 51 50 52 47 44 47 58
219 217 224 233 239 246 245 251 244 234 229 222 209 217 238 255 249 253 251 256 253 239 228 232 236 228 222 206 199 183 161 118 102 76 56 44 35 33 32 35 30 28 28
219 219 225 238 235 223 224 226 240 232 218 217 228 228 240 245 240 249 258 218 241 238 243 248 258 236 231 215 207 196 183 186 174 143 74 47 18 9 6 6 4 3 3
214 218 223 227 208 218 221 247 219 196 215 224 224 237 250 239 239 264 272 283 278 262 256 253 256 230 230 228 212 201 201 197 193 209 239 336 343 335 340 338 340 342 350
214 219 222 221 204 212 224 221 199 208 228 234 235 228 241 253 263 271 257 276 280 292 272 256 246 237 257 242 226 214 212 211 205 206 227 282 305 298 305 307 313 321 327
214 215 212 186 188 204 222 220 201 217 237 223 216 219 222 223 243 246 256 234 260 239 198 225 246 258 252 235 234 239 217 225 210 214 260 280 284 299 304 300 309 308 308
206 202 194 188 189 206 217 206 212 229 226 207 216 209 214 223 216 217 220 240 252 223 211 223 231 247 245 242 232 234 216 207 215 247 277 259 277 286 279 293 302 298 303
197 190 189 192 194 202 196 208 222 229 200 180 179 174 178 181 173 156 114 60 251 252 228 202 211 177 142 132 146 156 181 258 248 268 271 274 271 278 266 289 292 289 285
195 186 185 197 189 187 196 196 205 176 173 167 164 155 148 152 169 242 236 247 286 294 224 169 173 173 186 195 234 258 258 260 251 259 261 267 269 267 261 261 278 277 280
194 191 186 192 185 194 196 188 182 157 169 175 168 161 148 176 254 243 265 285 258 243 171 163 149 171 201 222 237 252 243 243 245 246 255 249 253 260 271 276 282 279 274
188 181 182 174 178 192 186 187 193 201 199 232 192 167 186 239 265 266 235 295 262 200 157 138 138 166 167 212 239 236 230 235 252 266 274 278 274 278 285 293 290 276 266
183 185 186 185 182 192 192 192 198 202 206 222 172 191 234 243 261 255 280 190 148 160 140 132 128 153 160 242 268 247 259 266 277 279 283 284 284 283 284 279 234 245 228
198 209 205 197 195 196 197 201 199 193 200 175 178 201 207 214 260 170 132 121 128 136 143 137 139 128 106 266 259 306 320 308 310 303 302 297 293 290 290 283 274 274 276
192 194 187 186 194 194 189 191 189 190 174 170 150 136 119 117 128 127 129 131 130 114 128 124 122 119 108 54 359 339 322 310 311 312 313 305 303 303 302 297 289 280 268
157 148 141 149 165 183 189 196 186 169 152 128 115 114 111 103 105 119 125 132 128 116 112 92 80 82 66 45 17 2 359 352 347 334 335 320 316 316 308 288 262 256 267
148 146 143 147 158 170 180 186 158 144 130 120 119 123 118 111 101 103 115 119 110 100 87 80 74 73 60 51 44 39 27 16 4 355 3 1 340 344 332 286 267 275 271
143 139 141 153 140 144 144 141 145 136 130 125 122 119 115 109 101 90 97 102 101 89 78 67 61 58 54 49 46 42 42 37 18 1 359 359 339 344 338 307 271 293 290
144 138 129 129 132 130 133 139 136 133 126 129 127 118 111 110 109 101 94 89 93 87 75 72 69 66 60 58 54 49 43 35 25 9 342 357 341 343 331 301 298 310 306
Wind_Speed_850mb
29 27 23 20 18 17 18 16 15 15 13 15 11 8 4 5 4 8 8 9 12 16 16 21 20 22 27 29 31 32 40 46 45 50 51 52 52 55 51 43 50 52 52
30 27 26 21 24 19 16 13 14 15 16 19 17 13 10 11 8 5 4 2 6 10 14 15 16 15 23 22 26 34 34 39 43 46 49 49 51 54 54 54 53 45 47
31 28 25 18 20 21 17 15 17 19 20 21 22 22 18 13 14 9 9 6 3 2 8 8 15 14 18 23 24 29 35 36 38 43 46 50 51 49 50 56 55 53 43
27 23 25 23 20 19 20 19 18 17 17 17 18 19 17 14 18 14 14 13 9 3 2 5 6 11 15 21 22 26 32 35 37 40 42 44 48 48 49 48 49 53 55
22 20 20 20 20 18 18 14 12 13 13 12 10 10 11 16 20 17 15 17 16 11 5 5 5 9 14 18 23 26 28 31 34 36 38 40 41 44 45 45 46 48 49
25 19 19 18 17 16 16 13 12 12 13 14 14 14 12 18 21 18 18 19 22 18 10 8 9 9 11 15 22 22 24 26 28 30 33 34 37 37 38 40 40 40 42
28 24 24 22 19 18 18 17 15 14 15 13 12 15 18 22 24 24 21 21 26 24 18 15 12 11 11 12 16 18 21 21 24 26 28 30 30 30 32 33 36 37 37
30 28 28 25 23 21 22 23 21 19 19 18 14 15 13 22 26 27 26 21 22 30 29 27 21 19 13 14 15 9 12 14 16 18 20 23 24 25 26 29 28 30 31
34 30 30 28 26 24 23 22 21 20 17 18 17 13 9 9 14 21 23 21 23 25 39 30 27 26 22 22 17 14 5 8 12 16 17 19 20 21 22 24 24 22 22
36 34 32 29 26 23 21 20 20 17 17 16 23 22 22 13 7 4 9 14 19 7 23 11 19 34 28 28 25 19 9 5 6 8 10 13 16 17 16 17 17 18 19
38 35 30 28 26 21 20 19 16 16 14 15 20 22 23 24 16 11 4 9 8 15 19 25 22 34 37 36 32 26 19 9 6 3 4 6 10 12 15 17 14 12 15
38 35 30 26 28 20 17 16 18 15 14 14 17 20 21 13 10 13 10 10 11 10 13 22 23 40 38 39 38 35 28 22 14 7 2 4 7 11 13 15 16 18 17
41 35 27 24 25 20 19 15 16 14 15 16 13 16 16 13 15 14 14 19 13 9 11 12 17 28 33 37 46 43 36 29 22 15 8 7 12 13 16 18 19 17 15
31 28 25 27 25 21 22 16 16 17 17 17 14 13 17 15 12 10 8 7 7 10 10 12 17 19 23 25 25 41 41 37 29 17 15 26 18 20 22 24 23 21 20
31 27 27 32 28 30 16 18 18 20 21 17 13 16 16 13 12 8 6 7 6 8 8 9 13 11 11 12 20 28 47 19 20 23 16 20 25 29 28 28 28 22 23
30 29 28 29 28 22 20 20 18 19 20 22 17 13 9 9 9 8 4 3 6 16 16 12 10 12 14 14 18 13 13 14 23 31 29 30 31 37 34 23 27 28 25
30 27 27 28 22 25 21 18 10 17 23 23 15 11 10 8 5 11 4 2 3 4 11 12 12 13 13 10 10 12 19 20 21 25 25 29 24 25 31 26 28 26 26
30 30 28 25 31 26 23 19 13 12 19 20 13 11 8 4 6 6 10 6 8 6 10 18 15 12 13 10 11 11 9 15 18 17 13 17 21 24 25 23 27 26 21
33 28 30 31 34 29 27 23 20 14 10 9 14 12 9 8 6 7 8 10 9 11 17 10 14 10 7 5 7 9 11 12 14 17 20 22 20 20 20 21 16 15 14
30 30 30 31 31 29 27 25 23 18 14 9 14 13 11 8 5 6 9 3 11 11 17 16 12 10 4 1 3 2 3 7 13 15 15 18 18 19 18 15 16 15 16
29 34 35 32 31 31 30 27 22 19 15 18 18 13 7 4 3 4 16 21 20 18 17 12 11 9 3 1 5 5 5 6 8 9 11 14 15 16 16 16 18 21 19
23 20 21 23 31 35 29 29 27 23 19 16 13 10 14 19 25 31 28 25 18 10 13 12 12 8 5 3 6 7 8 8 7 15 12 16 17 18 18 17 17 18 19
27 28 28 25 28 35 34 36 31 26 23 29 31 35 36 32 25 22 20 17 16 15 12 12 11 12 10 8 8 8 7 7 6 11 14 15 19 19 19 14 15 15 22
33 35 31 29 26 35 32 34 39 39 44 46 40 32 32 34 28 19 17 19 22 23 22 18 16 17 17 16 14 14 14 14 15 17 19 11 21 17 17 13 11 18 25
39 40 32 33 38 38 40 42 50 52 49 47 40 32 29 31 30 23 18 21 25 27 24 24 26 27 26 25 26 22 21 18 15 17 20 20 20 21 13 9 15 20 24
43 44 45 48 53 55 48 48 46 45 46 43 40 37 28 28 31 23 18 21 24 31 28 27 27 28 28 27 24 25 25 23 19 9 24 23 19 24 13 16 12 27 26
Wind_Direction_850mb
235 227 225 217 210 209 216 218 210 212 221 220 225 241 263 284 331 353 27 38 35 48 56 46 56 68 70 71 75 71 66 65 67 68 66 63 61 61 66 75 82 80 74
234 229 223 224 238 230 226 228 207 212 222 231 243 252 262 257 250 295 309 24 36 46 57 49 48 64 84 77 74 81 75 70 68 68 68 69 67 63 61 61 68 81 84
230 224 226 222 214 207 209 206 203 216 222 234 247 253 261 268 243 234 283 265 208 59 45 64 66 59 84 85 78 78 79 76 72 70 70 72 74 69 69 67 63 62 69
231 229 221 220 207 205 204 207 211 214 219 230 241 254 258 248 232 227 244 254 229 226 59 116 84 55 87 90 89 87 86 83 73 72 70 68 73 69 68 68 70 66 66
221 213 208 210 206 206 206 207 202 207 214 221 239 253 263 247 224 231 238 241 240 255 225 168 134 107 87 98 97 91 82 80 76 73 70 73 71 70 69 67 69 67 65
212 206 197 201 209 211 218 224 224 220 217 218 210 227 239 262 234 230 238 246 247 248 228 190 186 147 123 112 106 95 89 81 70 69 67 68 74 72 73 71 66 65 64
214 215 213 214 219 225 235 242 246 245 243 221 221 229 231 240 236 232 235 257 238 234 233 219 205 183 158 129 113 108 102 90 80 75 69 66 63 67 69 69 68 66 64
215 221 226 228 234 241 248 249 244 247 241 217 217 234 244 245 247 246 248 249 245 232 235 231 207 200 195 159 138 93 64 58 60 69 68 70 61 60 58 60 61 65 67
220 223 227 234 242 246 248 249 247 247 236 212 208 212 222 223 229 248 257 255 254 248 242 245 229 217 207 196 175 153 112 79 79 66 57 52 51 50 52 47 44 47 58
219 217 224 233 239 246 245 251 244 234 229 222 209 217 238 255 249 253 251 256 253 239 228 232 236 228 222 206 199 183 161 118 102 76 56 44 35 33 32 35 30 28 28
219 219 225 238 235 223 224 226 240 232 218 217 228 228 240 245 240 249 258 218 241 238 243 248 258 236 231 215 207 196 183 186 174 143 74 47 18 9 6 6 4 3 3
214 218 223 227 208 218 221 247 219 196 215 224 224 237 250 239 239 264 272 283 278 262 256 253 256 230 230 228 212 201 201 197 193 209 239 336 343 335 340 338 340 342 350
214 219 222 221 204 212 224 221 199 208 228 234 235 228 241 253 263 271 257 276 280 292 272 256 246 237 257 242 226 214 212 211 205 206 227 282 305 298 305 307 313 321 327
214 215 212 186 188 204 222 220 201 217 237 223 216 219 222 223 243 246 256 234 260 239 198 225 246 258 252 235 234 239 217 225 210 214 260 280 284 299 304 300 309 308 308
206 202 194 188 189 206 217 206 212 229 226 207 216 209 214 223 216 217 220 240 252 223 211 223 231 247 245 242 232 234 216 207 215 247 277 259 277 286 279 293 302 298 303
197 190 189 192 194 202 196 208 222 229 200 180 179 174 178 181 173 156 114 60 251 252 228 202 211 177 142 132 146 156 181 258 248 268 271 274 271 278 266 289 292 289 285
195 186 185 197 189 187 196 196 205 176 173 167 164 155 148 152 169 242 236 247 286 294 224 169 173 173 186 195 234 258 258 260 251 259 261 267 269 267 261 261 278 277 280
194 191 186 192 185 194 196 188 182 157 169 175 168 161 148 176 254 243 265 285 258 243 171 163 149 171 201 222 237 252 243 243 245 246 255 249 253 260 271 276 282 279 274
188 181 182 174 178 192 186 187 193 201 199 232 192 167 186 239 265 266 235 295 262 200 157 138 138 166 167 212 239 236 230 235 252 266 274 278 274 278 285 293 290 276 266
183 185 186 185 182 192 192 192 198 202 206 222 172 191 234 243 261 255 280 190 148 160 140 132 128 153 160 242 268 247 259 266 277 279 283 284 284 283 284 279 234 245 228
198 209 205 197 195 196 197 201 199 193 200 175 178 201 207 214 260 170 132 121 128 136 143 137 139 128 106 266 259 306 320 308 310 303 302 297 293 290 290 283 274 274 276
192 194 187 186 194 194 189 191 189 190 174 170 150 136 119 117 128 127 129 131 130 114 128 124 122 119 108 54 359 339 322 310 311 312 313 305 303 303 302 297 289 280 268
157 148 141 149 165 183 189 196 186 169 152 128 115 114 111 103 105 119 125 132 128 116 112 92 80 82 66 45 17 2 359 352 347 334 335 320 316 316 308 288 262 256 267
148 146 143 147 158 170 180 186 158 144 130 120 119 123 118 111 101 103 115 119 110 100 87 80 74 73 60 51 44 39 27 16 4 355 3 1 340 344 332 286 267 275 271
143 139 141 153 140 144 144 141 145 136 130 125 122 119 115 109 101 90 97 102 101 89 78 67 61 58 54 49 46 42 42 37 18 1 359 359 339 344 338 307 271 293 290
144 138 129 129 132 130 133 139 136 133 126 129 127 118 111 110 109 101 94 89 93 87 75 72 69 66 60 58 54 49 43 35 25 9 342 357 341 343 331 301 298 310 306